Regional Weather Roundup
Issued by NWS Charleston, SC

Home | Current Version | Previous Version | Text Only | Print | Product List | Glossary On
Versions: 1 2 3 4 5 6 7 8 9 10 11 12 13 14 15 16 17 18 19 20 21 22 23 24 25 26 27 28 29 30 31 32 33 34 35 36 37 38 39 40 41 42 43 44 45 46 47 48 49 50
000
ASUS42 KCHS 301928
RWRCHS

REGIONAL WEATHER ROUNDUP
NATIONAL WEATHER SERVICE CHARLESTON SC
300 PM EDT SAT APR 30 2016

NOTE: "FAIR" INDICATES FEW OR NO CLOUDS BELOW 12,000 FEET WITH NO
SIGNIFICANT WEATHER AND/OR OBSTRUCTIONS TO VISIBILITY.

NOT ALL STATIONS ARE QUALITY CONTROLLED. USE DATA WITH CAUTION...
ESPECIALLY DEWPOINT OBSERVATIONS.

SCZ027-030-031-034>040-042>050-302000-
...SOUTHEAST SOUTH CAROLINA...

CITY           SKY/WX    TMP DP  RH WIND       PRES   REMARKS
N CHARLESTON   CLOUDY    80  69  69 SE13      30.03F
WATERFRONT PRK   N/A     78  73  84 E12       30.02F
MOUNT PLEASANT FAIR      79  72  78 SE6G18    30.04F
JOHNS ISLAND   CLOUDY    79  73  83 E10       30.04S
PINOPOLIS        N/A     86  66  51 VRB3      29.94F
MONCKS CORNER  FAIR      79  63  57 SE8G16    30.03S
SUMMERVILLE    FAIR      86  68  54 SE7G16    30.03S
BEAUFORT MCAS  MOSUNNY   84  69  60 S5        30.02F
BEAUFORT ARPT  FAIR      81  70  69 SE9       30.02F
HILTON HEAD IS MOSUNNY   79  72  78 SE5       30.04F
WALTERBORO     PTCLDY    86  64  48 SE14      30.02F
ALLENDALE      MOCLDY    86  63  45 SE12G18   29.99S

...SOUTHERN MIDLANDS AND PEE DEE...

CITY           SKY/WX    TMP DP  RH WIND       PRES   REMARKS
GEORGETOWN     MOCLDY    73  66  78 E12       30.07F
KINGSTREE      CLOUDY    79  64  61 E14       30.02F
ORANGEBURG     MOSUNNY   85  64  49 S13G20    30.01F
BARNWELL       FAIR      90  64  43 S15       29.99F HX  91
AIKEN          FAIR      86  61  42 S9G17     30.02F
MANNING        NOT AVBL
COLUMBIA       PTSUNNY   88  63  43 SE9       29.99F
SUMTER         MOSUNNY   84  66  54 S9        29.99F
FLORENCE       CLOUDY    80  66  62 SE12      30.05F
MYRTLE BEACH   CLOUDY    73  61  64 E15       30.10S
N MYRTLE BEACH CLOUDY    72  63  73 E15       30.09S

$$

GAZ063-065-086>088-099>101-113>116-118-119-134>141-150-302000-
...SOUTHEAST GEORGIA...

CITY           SKY/WX    TMP DP  RH WIND       PRES   REMARKS
SAVANNAH ARPT  PTSUNNY   87  64  46 S15G22    30.01S
HUNTER AAF     MOSUNNY   84  70  64 SE12G17   29.99F
FORT STEWART   SUNNY     89  58  35 E16G23    29.96F
STATESBORO     SUNNY     92  65  40 SE7       29.98F HX  93
SYLVANIA       MOCLDY    88  66  47 SE8       30.00F HX  91
CLAXTON        FAIR      89  61  38 E9        29.98F

...CSRA...CENTRAL AND FAR SOUTHEAST GEORGIA...

CITY           SKY/WX    TMP DP  RH WIND       PRES   REMARKS
THOMSON        MOSUNNY   90  64  41 SE9G18    29.99F HX  91
AUGUSTA-BUSH   PTSUNNY   87  63  44 S10       29.97F
AUGUSTA-DANIEL CLOUDY    87  61  41 SE10      29.99F
SWAINSBORO     FAIR      88  59  37 S8G16     29.98F
VIDALIA        MOSUNNY   90  59  35 SE6       29.97F
EASTMAN        FAIR      90  63  40 S12       29.96F HX  91
HAZLEHURST     FAIR      91  58  33 SE8       29.95F HX  90
ALMA           SUNNY     89  58  34 VRB6      29.97F
WAYCROSS       MOSUNNY   89  62  41 S7        29.95F
JESUP          FAIR      91  59  33 SE9       29.98S HX  90
BAXLEY         FAIR      91  54  27 S8        29.96F
BRUNSWICK      SUNNY     88  68  51 SE14      30.00F HX  91
SAINT SIMONS   SUNNY     80  72  76 SE10      30.00F

$$

SCZ027-028-034-036>038-045-046-048>050-GAZ119-141-302000-
...LAKE AND SUPPLEMENTAL COASTAL OBSERVATIONS...

STATION/POSITION TIME  TEMP    WIND        PRES    WAVE   SWELL
                       AIR SEA DIR/SP/G            HT/PER HT/PER/DIR
                 (UTC) (F)     (DEG/KT/KT) (MB)    (FT/S) (FT/S/D)
WINYAH BAY       1800   71      80/ 11     1018.0S
LAKE MURRAY      1800   82      CALM  /  2 1015.6F
ACE BASIN NERRS  1800   82     130/  4     1017.0F
FORT PULASKI     1900   75 73   70/ 11/ 12 1017.0F
SAPELO ISLAND    1900   84     130/  8     1016.0S

$$

ANZ835-935-AMZ111-154-330-350-352-354-370-450-454-472-302000-
...C-MAN AND BUOY OBSERVATIONS...

STATION/POSITION TIME  TEMP    WIND        PRES    WAVE   SWELL
                       AIR SEA DIR/SP/G            HT/PER HT/PER/DIR
                 (UTC) (F)     (DEG/KT/KT) (MB)    (FT/S) (FT/S/D)
BUOY 41004       1850   75 74   90/ 12/ 12 1017.0F   2/ 9   2/ 9
BUOY 41008       NOT AVBL
FOLLY BEACH CMAN 1900   73      90/  9/ 10 1017.5F
CAPERS NEARSHORE 1808   72 72   80/  8/ 12 1017.4F
FRIPP NEARSHORE  1908   75 75  120/  6/  8 1016.2F


STATION/POSITION TIME  TEMP    WIND        PRES    WAVE   SWELL
                       AIR SEA DIR/SP/G            HT/PER HT/PER/DIR
                 (UTC) (F)     (DEG/KT/KT) (MB)    (FT/S) (FT/S/D)
5E ST. MARYS GA  1821      74                N/A     2/ 9
FRYING PAN BUOY  1900   70 70   50/ 14/ 16 1018.1F
BUOY 41025       1850   58 74   10/ 16/ 17 1020.5F   6/ 9   5/ 60/ 9
CAPE LOOKOUT NC  1900   63      40/ 17/ 18 1019.9F
BUOY 41002       1850   70      60/ 10/ 12 1018.0R   5/11   3/ 50/11
BUOY 41010       1820   77 78  160/  8/ 10 1016.7F
ST AUGUSTINE FL  1900   75 74  120/ 11/ 13 1016.2F


$$




USA.gov is the U.S. government's official web portal to all federal, state and local government web resources and services.